STARLINK-36848

Last updated on Fri Mar 27 2026 00:02:06 GMT+0000 (Coordinated Universal Time)

1 67936U 26037E 26085.33873168 .00062287 00000+0 10590-2 0 9990 2 67936 43.0021 98.7439 0002059 276.4368 83.6257 15.50581790 5866
UTC large
Height (km)
Speed (km/s)
/
Latitude / Longitude
Inclination (degrees)
Orbital Period (minutes)
Azimuth
Elevation
Range (km)
Doppler Factor

Next 0 passes for location: London (51.5072 / 0.1276)

Sorry there are no passes over London.